Temp
60 59 59 59 58 60 59 59 62 63 62 63 61 61 61 62 62 62 60 65 67 67 67 70 70 69 71 64 67 66 55 44 46 52 58 68 65 68 71 68 65 63 64 65 64
59 58 59 59 59 59 59 58 62 62 62 62 61 61 62 61 60 57 65 66 67 67 69 67 64 66 61 60 57 60 51 48 54 60 59 64 64 62 66 65 61 62 61 61 64
58 58 58 58 58 58 58 58 62 62 62 62 61 61 62 64 59 60 66 66 67 69 71 70 69 62 54 57 54 54 55 55 54 57 62 62 60 59 61 57 55 55 56 57 58
57 57 57 57 57 58 57 57 60 62 62 62 61 61 61 61 51 62 64 66 67 72 70 67 65 59 51 51 54 49 57 60 58 58 60 57 59 54 54 52 57 58 58 58 56
57 57 56 57 57 57 56 56 58 61 61 62 62 61 61 55 56 67 62 66 69 69 67 65 62 60 51 51 54 51 54 57 59 57 55 57 54 53 52 56 58 59 59 59 60
56 56 56 56 56 56 56 56 57 60 61 62 62 61 58 53 64 65 66 65 68 68 66 67 64 65 58 54 51 55 56 53 57 58 56 54 51 54 53 56 56 56 56 57 56
56 56 56 56 56 56 55 56 57 59 61 62 62 62 56 54 64 66 66 64 66 67 64 67 67 63 61 53 56 52 50 54 54 56 54 59 52 48 52 55 54 54 55 52 51
56 56 56 56 55 56 55 55 56 59 61 62 62 61 54 63 66 64 66 64 68 69 69 69 69 64 61 59 54 48 49 44 53 56 56 56 52 49 53 54 52 52 52 50 49
56 55 55 55 55 56 55 53 56 59 61 62 59 57 51 63 60 62 66 62 65 67 68 69 67 60 59 52 46 45 37 42 47 56 54 54 53 49 51 52 51 50 50 49 50
55 55 55 55 55 56 56 55 58 60 60 62 61 52 54 53 58 60 64 65 61 62 61 62 60 56 55 51 40 42 42 42 43 52 54 52 51 48 50 51 49 48 48 48 48
54 55 55 55 56 56 52 52 48 48 52 48 51 50 52 57 61 58 62 62 62 60 53 56 52 46 51 54 52 50 47 45 46 52 50 52 52 48 49 50 49 47 47 47 47
53 54 55 55 55 55 53 46 44 45 43 51 52 52 55 57 51 54 61 57 55 50 54 51 47 54 55 54 51 49 45 45 49 50 48 46 48 49 48 49 52 49 47 46 46
53 54 54 55 54 52 48 43 48 49 45 48 52 51 53 56 50 51 58 55 53 48 51 49 50 55 51 50 48 48 46 44 44 48 46 45 45 44 47 47 48 49 49 48 47
53 53 53 54 51 48 45 47 48 49 38 41 46 51 53 55 48 56 59 57 51 49 50 51 53 51 49 49 51 44 52 49 47 45 38 48 36 40 47 43 44 46 46 47 46
52 53 52 53 47 44 44 48 50 49 26 44 45 56 54 50 51 51 58 56 49 48 51 48 48 47 46 49 53 49 52 50 49 45 44 42 38 48 45 41 42 46 46 47 47
52 52 51 49 49 47 47 48 48 33 25 35 42 42 45 47 47 50 53 56 54 49 50 51 51 53 53 53 54 54 50 48 47 46 32 42 40 43 40 45 49 48 47 46 44
51 51 49 48 44 48 47 44 32 27 37 33 36 41 43 41 42 46 45 44 45 39 41 45 46 50 51 49 51 51 47 34 32 31 33 43 39 45 47 48 50 48 46 46 46
50 48 46 46 47 48 44 36 26 31 34 40 38 41 36 42 42 42 43 41 46 46 45 39 36 46 51 52 48 48 48 39 27 30 37 39 35 45 42 42 44 49 48 44 42
48 46 45 46 46 48 39 30 32 32 41 39 37 34 34 40 41 41 42 43 47 44 43 41 42 46 48 51 54 47 41 52 39 33 34 42 44 48 38 37 42 43 41 40 39
45 43 43 44 46 45 34 30 31 39 39 43 33 37 33 37 38 39 39 46 45 47 48 46 40 43 46 50 49 49 54 40 41 29 29 40 39 44 39 38 37 37 38 40 39
43 39 44 44 46 39 29 30 33 38 38 40 37 35 37 37 40 37 40 43 48 46 48 47 44 38 43 43 46 45 43 45 46 44 34 32 42 50 47 44 39 39 40 39 37
40 30 43 45 33 31 30 31 37 35 39 40 41 40 36 40 37 38 38 43 49 49 43 47 43 35 39 45 47 52 49 48 40 35 40 39 41 43 42 43 43 40 39 39 39
33 33 41 41 25 26 27 28 33 34 34 35 36 42 43 37 33 39 41 46 46 46 46 45 36 32 33 41 41 40 46 49 48 42 37 34 42 40 40 41 42 40 39 37 37
31 27 32 35 29 28 26 26 28 36 35 35 35 37 40 36 42 35 38 43 43 46 46 47 42 40 35 41 45 38 42 45 45 36 39 40 46 44 40 39 40 39 39 38 36
29 27 26 24 25 29 28 26 26 29 33 35 33 34 34 33 35 35 38 39 40 42 44 44 35 39 42 42 41 42 42 42 41 45 41 46 46 52 50 43 42 41 38 36 34
27 25 25 24 28 27 28 25 25 32 31 28 30 37 36 31 34 33 36 39 39 40 39 42 34 36 33 40 35 33 40 43 44 46 46 48 47 48 49 48 41 39 37 35 35
33 34 33 28 26 25 26 27 26 32 35 35 34 34 32 35 36 37 38 37 35 36 37 36 35 32 30 38 32 28 36 40 43 46 47 41 49 39 39 41 41 39 38 37 38
MSLP
1016.87 1017.01 1017.16 1017.10 1017.12 1016.75 1016.57 1016.04 1016.12 1016.28 1016.80 1017.07 1017.36 1017.59 1017.62 1017.71 1017.93 1017.83 1017.29 1017.15 1016.98 1017.08 1017.21 1017.10 1017.12 1017.07 1017.00 1017.40 1017.46 1017.65 1017.91 1019.05 1019.17 1018.72 1017.66 1017.06 1016.74 1016.87 1017.06 1016.99 1017.98 1018.86 1019.11 1019.59 1019.93
1017.17 1017.18 1017.15 1017.09 1016.97 1016.82 1016.51 1016.11 1015.67 1016.28 1016.80 1017.12 1017.39 1017.71 1017.86 1017.86 1017.76 1017.49 1017.47 1017.25 1017.02 1017.16 1017.01 1016.93 1017.08 1017.28 1017.61 1017.98 1018.28 1017.97 1018.42 1019.11 1019.21 1018.65 1018.22 1017.84 1017.70 1018.03 1017.89 1018.12 1019.25 1019.92 1020.39 1020.53 1020.43
1017.30 1017.32 1017.31 1016.93 1017.05 1016.86 1016.68 1016.36 1015.85 1016.37 1016.85 1017.08 1017.44 1017.71 1017.81 1017.68 1017.47 1017.18 1017.20 1017.23 1017.19 1017.29 1017.23 1017.21 1017.25 1017.59 1018.26 1018.62 1019.06 1018.85 1018.55 1019.07 1019.44 1019.10 1018.55 1018.48 1018.89 1019.47 1019.33 1019.90 1021.19 1021.46 1021.64 1021.64 1021.33
1017.64 1017.63 1017.42 1017.32 1017.03 1016.97 1016.96 1016.83 1016.31 1016.66 1016.82 1017.09 1017.46 1017.70 1017.86 1017.66 1017.42 1017.23 1017.42 1017.36 1017.38 1017.30 1017.22 1017.31 1017.32 1017.65 1018.55 1019.10 1019.49 1019.52 1019.36 1019.27 1019.52 1019.25 1018.84 1019.62 1020.07 1020.66 1021.06 1022.07 1022.47 1022.49 1022.48 1022.26 1022.20
1018.00 1017.90 1017.74 1017.56 1017.41 1017.16 1017.54 1017.55 1017.09 1016.88 1017.00 1017.18 1017.52 1017.75 1017.75 1017.52 1017.42 1017.26 1017.27 1017.29 1017.39 1017.46 1017.19 1017.24 1017.37 1017.70 1018.47 1019.26 1019.60 1019.84 1019.82 1019.75 1019.68 1019.77 1019.98 1020.38 1021.06 1021.47 1022.39 1022.82 1022.94 1022.95 1022.94 1022.86 1022.77
1018.21 1018.23 1018.11 1017.90 1017.71 1017.80 1017.87 1017.83 1017.60 1017.12 1017.20 1017.29 1017.53 1017.82 1017.67 1017.47 1017.74 1017.38 1017.07 1017.50 1017.35 1017.35 1017.34 1017.42 1017.42 1017.64 1018.47 1019.30 1019.88 1020.25 1020.05 1020.09 1020.06 1019.86 1020.07 1020.34 1021.75 1021.97 1023.16 1023.41 1023.29 1023.29 1023.44 1023.63 1023.69
1018.43 1018.48 1018.51 1018.37 1018.22 1018.24 1018.17 1018.02 1017.64 1017.30 1017.18 1017.39 1017.70 1017.76 1017.57 1017.94 1017.84 1017.56 1017.50 1017.64 1017.67 1017.52 1017.35 1017.71 1017.68 1017.74 1018.44 1019.51 1020.23 1020.68 1020.59 1020.54 1020.30 1020.28 1020.17 1020.24 1021.58 1022.47 1023.60 1023.72 1023.46 1023.53 1023.89 1024.43 1024.51
1018.88 1018.81 1018.87 1018.86 1018.61 1018.41 1018.28 1017.97 1017.86 1017.60 1017.35 1017.62 1017.90 1017.80 1017.68 1017.97 1017.88 1017.72 1017.69 1017.86 1017.85 1017.77 1017.56 1017.77 1017.76 1018.03 1018.54 1019.53 1020.25 1020.82 1021.02 1020.84 1020.43 1020.27 1020.45 1020.64 1021.14 1022.72 1023.54 1023.66 1023.80 1023.99 1024.45 1024.82 1025.06
1019.24 1019.21 1018.97 1018.75 1018.69 1018.71 1018.65 1018.44 1018.10 1017.60 1017.63 1017.88 1018.21 1017.81 1018.04 1018.01 1017.93 1018.06 1017.89 1017.78 1017.88 1017.89 1017.94 1017.98 1017.96 1018.35 1019.10 1019.34 1020.19 1020.84 1020.87 1020.82 1020.63 1020.29 1020.23 1020.47 1021.03 1022.70 1023.42 1023.81 1024.01 1024.42 1024.72 1025.21 1025.52
1019.47 1019.31 1019.19 1018.99 1018.87 1018.45 1018.32 1018.17 1017.88 1017.62 1017.91 1018.18 1018.15 1018.40 1018.45 1018.11 1018.09 1018.21 1018.24 1018.03 1017.97 1017.98 1018.23 1018.17 1018.32 1018.30 1018.83 1019.04 1019.21 1019.74 1020.32 1020.61 1020.31 1020.24 1020.40 1020.62 1021.24 1022.56 1023.25 1023.90 1024.12 1024.94 1025.11 1025.45 1025.79
1019.78 1019.44 1019.31 1019.08 1018.79 1018.60 1018.69 1018.42 1018.79 1018.99 1018.56 1018.53 1018.16 1018.27 1018.25 1018.39 1018.33 1018.40 1018.37 1018.16 1018.09 1018.02 1017.97 1018.47 1018.25 1018.15 1018.51 1018.80 1019.18 1019.39 1019.75 1019.92 1020.40 1020.29 1020.47 1020.51 1021.03 1022.12 1023.15 1023.71 1024.09 1024.64 1025.27 1025.49 1025.96
1020.08 1019.96 1019.69 1019.51 1019.32 1019.03 1019.10 1019.40 1020.31 1020.34 1019.45 1018.89 1018.62 1018.59 1018.50 1018.34 1018.36 1018.64 1018.54 1018.14 1018.07 1017.96 1018.41 1018.76 1018.04 1018.29 1018.80 1019.10 1019.34 1019.41 1019.61 1019.88 1020.36 1020.42 1020.71 1020.84 1020.91 1021.98 1022.91 1023.27 1023.66 1024.18 1025.14 1025.39 1025.85
1020.39 1020.21 1019.87 1019.66 1019.69 1019.81 1020.20 1020.84 1020.78 1020.24 1019.47 1019.24 1018.76 1018.52 1018.54 1018.52 1018.39 1018.46 1018.50 1018.31 1018.08 1018.25 1018.13 1017.98 1018.23 1018.54 1018.95 1019.15 1019.29 1019.28 1019.41 1019.67 1019.88 1020.48 1021.00 1021.01 1020.68 1021.52 1022.29 1023.10 1023.66 1024.10 1025.01 1025.45 1025.43
1020.77 1020.45 1020.29 1019.86 1020.19 1020.77 1020.85 1021.20 1020.70 1020.33 1019.82 1019.23 1018.64 1018.21 1018.45 1018.39 1018.69 1018.70 1018.43 1018.28 1018.43 1018.13 1018.47 1018.36 1018.62 1018.58 1018.89 1018.82 1018.95 1018.82 1019.01 1019.46 1019.83 1020.23 1020.45 1020.78 1019.91 1020.10 1021.16 1022.16 1023.04 1023.63 1024.58 1024.99 1025.34
1021.09 1020.89 1020.69 1020.33 1020.83 1021.26 1021.73 1021.15 1020.49 1020.00 1019.59 1018.98 1018.59 1018.39 1018.30 1018.51 1018.61 1018.83 1018.73 1018.37 1018.17 1018.12 1018.38 1018.07 1018.36 1018.59 1018.61 1018.41 1018.74 1018.58 1018.98 1019.24 1019.61 1019.82 1020.10 1020.34 1020.57 1018.98 1020.42 1021.02 1021.67 1022.56 1023.49 1024.28 1025.01
1021.39 1021.18 1021.03 1020.93 1021.26 1021.67 1021.58 1021.12 1020.86 1020.86 1019.80 1019.38 1018.92 1018.50 1018.70 1018.87 1018.92 1018.92 1018.87 1018.76 1018.68 1018.52 1018.55 1018.40 1018.77 1018.59 1018.12 1018.48 1018.59 1018.75 1019.19 1019.49 1019.87 1019.81 1019.53 1019.22 1019.63 1018.04 1018.93 1018.82 1019.39 1021.28 1022.57 1023.55 1025.02
1021.63 1021.48 1021.41 1021.64 1021.82 1021.84 1021.50 1021.20 1021.31 1020.46 1020.09 1019.75 1019.24 1018.92 1018.78 1019.02 1019.22 1018.81 1018.82 1018.63 1017.84 1018.21 1017.97 1018.61 1018.69 1018.60 1018.54 1018.48 1018.79 1018.85 1018.86 1019.14 1019.52 1019.70 1018.28 1018.39 1018.62 1017.04 1017.63 1018.24 1018.79 1019.67 1021.59 1023.21 1024.65
1021.97 1021.78 1022.17 1022.26 1022.22 1021.84 1021.55 1021.63 1020.84 1019.82 1019.51 1019.24 1019.09 1019.04 1019.14 1019.08 1019.31 1019.18 1019.02 1018.48 1018.14 1017.66 1017.44 1017.67 1018.25 1018.11 1018.01 1017.51 1017.69 1018.14 1018.09 1017.81 1017.95 1018.30 1018.04 1018.42 1017.00 1016.33 1017.63 1018.54 1019.52 1019.88 1021.86 1023.30 1024.61
1022.12 1022.30 1022.28 1022.45 1022.39 1022.02 1022.04 1021.68 1020.07 1019.66 1018.86 1018.72 1019.27 1019.22 1019.27 1019.11 1019.03 1019.07 1018.76 1018.29 1017.63 1017.85 1017.16 1017.18 1017.25 1017.83 1017.79 1017.67 1017.52 1017.96 1017.67 1017.75 1017.96 1018.67 1017.99 1016.47 1016.31 1016.60 1018.09 1019.04 1019.78 1020.74 1022.34 1023.36 1024.79
1022.24 1022.46 1022.60 1022.74 1022.49 1022.31 1022.26 1021.51 1020.92 1020.16 1019.54 1018.69 1018.66 1018.87 1018.68 1018.74 1018.95 1018.81 1018.51 1017.48 1017.51 1017.56 1017.62 1016.95 1017.16 1017.82 1018.07 1017.93 1017.84 1017.31 1017.30 1017.90 1017.83 1017.29 1016.56 1015.41 1015.75 1015.90 1017.12 1018.43 1020.13 1021.29 1022.08 1023.42 1024.87
1022.40 1022.50 1022.73 1023.00 1022.50 1022.34 1022.39 1022.03 1021.33 1020.72 1020.20 1019.12 1018.59 1018.66 1018.46 1018.29 1018.27 1018.35 1017.63 1017.59 1017.28 1017.36 1017.67 1017.26 1017.08 1018.36 1018.27 1017.15 1016.63 1017.34 1016.77 1016.75 1016.72 1016.40 1015.82 1015.27 1014.38 1014.77 1016.15 1017.26 1018.72 1020.62 1021.96 1023.30 1024.62
1022.65 1022.92 1023.12 1022.85 1022.99 1023.20 1022.80 1022.31 1021.66 1021.01 1020.44 1019.48 1018.91 1018.51 1018.57 1018.35 1018.13 1018.10 1017.50 1017.24 1016.99 1016.99 1017.03 1017.27 1017.24 1017.65 1017.39 1017.45 1017.24 1016.26 1015.64 1015.81 1015.60 1015.97 1015.99 1015.67 1014.44 1015.16 1016.46 1017.55 1018.65 1020.28 1021.86 1023.22 1024.55
1022.90 1023.46 1023.52 1023.34 1023.52 1023.42 1023.27 1022.69 1022.07 1021.55 1021.03 1020.30 1019.40 1018.67 1018.27 1018.43 1018.44 1017.84 1017.58 1017.18 1017.22 1017.00 1016.37 1016.74 1016.90 1017.26 1017.53 1017.82 1017.62 1016.49 1015.81 1015.52 1015.63 1015.97 1014.97 1015.26 1013.52 1015.14 1016.53 1017.58 1018.72 1020.13 1021.84 1023.23 1024.44
1023.52 1024.06 1024.13 1023.86 1024.00 1023.61 1023.43 1023.10 1022.42 1021.62 1021.22 1020.82 1020.34 1019.34 1018.64 1018.34 1018.06 1018.00 1017.85 1017.53 1017.44 1017.25 1016.99 1016.72 1016.32 1015.79 1014.95 1014.91 1015.38 1016.13 1015.58 1015.52 1015.37 1015.05 1013.78 1012.37 1013.26 1014.52 1015.78 1017.06 1018.50 1019.99 1021.51 1022.84 1023.99
1023.80 1023.94 1024.22 1024.27 1024.11 1023.62 1023.25 1023.13 1022.57 1021.93 1021.48 1021.05 1020.59 1020.00 1019.24 1018.72 1018.33 1018.09 1018.12 1018.20 1018.23 1017.71 1017.50 1017.26 1016.26 1016.09 1015.53 1015.54 1015.62 1015.19 1014.78 1014.81 1014.30 1012.15 1012.97 1011.22 1012.00 1012.40 1014.25 1015.93 1017.34 1019.13 1020.88 1022.28 1023.45
1023.37 1023.84 1024.51 1024.12 1023.79 1023.85 1023.59 1023.00 1022.25 1021.42 1021.26 1021.05 1020.51 1019.71 1019.60 1019.55 1018.95 1018.62 1018.52 1018.42 1017.86 1017.92 1017.77 1017.40 1016.48 1016.36 1015.90 1015.92 1015.92 1015.37 1014.62 1013.84 1012.64 1012.34 1011.43 1011.87 1010.67 1012.83 1013.86 1015.22 1016.96 1018.11 1019.75 1021.02 1022.01
1023.07 1023.27 1023.04 1023.57 1023.51 1023.50 1022.62 1021.81 1021.70 1021.53 1020.83 1020.45 1020.15 1019.98 1019.67 1019.40 1019.10 1019.23 1019.37 1019.26 1018.90 1018.32 1017.25 1017.34 1016.98 1016.93 1015.39 1015.57 1015.97 1015.51 1011.95 1012.12 1011.82 1011.52 1010.59 1010.83 1009.06 1012.43 1013.89 1014.82 1015.40 1016.90 1018.21 1019.00 1020.12
Wind_Speed
4 6 7 8 5 13 16 17 6 12 8 7 5 5 5 2 4 1 3 2 1 7 5 7 7 9 6 3 3 1 3 4 8 8 5 8 4 4 4 9 8 8 6 5 8
9 8 9 11 7 11 16 20 14 13 11 7 8 7 7 6 2 2 1 2 0 9 7 10 11 7 4 3 4 1 3 6 3 2 2 4 3 5 1 7 10 9 13 11 4
8 9 10 12 9 11 15 20 14 12 12 9 8 9 8 8 3 3 5 4 6 5 4 6 9 5 4 3 2 4 3 9 3 2 4 2 5 5 1 8 7 4 8 10 9
9 8 10 11 11 13 14 20 4 10 9 8 9 8 7 3 9 3 8 8 5 5 6 10 4 4 4 4 1 4 6 7 6 4 4 4 4 7 12 5 4 4 4 7 9
8 9 10 11 12 14 12 13 18 6 5 9 10 9 5 2 4 4 9 9 10 6 9 11 6 5 7 6 3 4 4 4 4 8 10 13 11 8 9 6 5 6 8 9 8
8 9 10 11 12 13 10 8 14 3 7 9 12 6 1 6 4 6 7 9 10 6 7 7 3 7 9 5 3 3 7 3 1 7 3 6 4 1 6 3 7 8 9 9 10
8 9 10 11 9 10 10 7 12 12 7 10 13 2 1 6 4 3 5 4 7 3 6 2 1 2 8 9 6 4 4 1 1 1 3 9 3 3 3 1 7 8 9 9 10
9 8 9 10 8 10 9 7 9 10 5 12 7 1 3 2 3 4 6 6 5 4 4 2 3 6 4 11 5 4 1 8 3 2 3 6 7 3 1 3 5 7 7 8 10
8 8 9 11 9 9 9 4 7 9 5 11 2 2 5 3 2 3 2 9 6 5 3 4 2 4 6 7 5 2 4 9 5 3 2 2 7 4 2 3 5 4 6 6 7
10 9 9 10 9 12 9 5 8 6 10 4 2 2 1 4 3 3 2 7 3 9 7 2 2 5 7 8 5 9 6 7 10 11 9 9 8 6 4 6 6 4 5 6 6
10 9 10 9 11 15 8 2 3 4 3 2 5 2 3 2 1 3 2 6 5 6 8 4 7 9 11 9 2 5 5 7 5 3 7 14 12 9 7 7 8 8 6 6 5
11 8 8 8 10 11 3 3 4 4 4 1 3 2 1 1 4 2 3 6 9 11 8 6 13 8 8 8 5 7 3 5 6 3 2 5 12 9 10 8 8 9 8 8 6
10 9 7 8 8 4 4 6 9 6 2 3 2 2 3 2 2 10 8 5 11 11 15 12 1 11 9 9 9 6 10 9 4 8 1 2 9 8 8 8 9 9 9 9 9
13 12 11 5 3 4 3 8 6 4 3 6 6 5 4 3 2 1 4 2 4 15 12 10 4 12 9 13 13 10 8 11 8 10 4 8 5 8 14 14 14 14 14 12 10
9 10 10 10 2 3 7 9 9 2 6 9 6 2 4 5 8 7 1 1 11 10 8 8 12 12 12 12 12 6 6 13 15 10 4 6 6 4 7 14 18 19 17 14 12
9 8 3 4 3 3 6 6 2 3 4 3 1 7 10 3 3 6 6 2 2 5 5 5 1 7 9 8 13 6 6 6 3 6 8 14 8 8 9 12 19 19 19 16 14
7 10 5 1 3 4 3 2 4 3 1 4 3 6 13 5 4 10 15 8 11 11 14 8 4 2 3 8 5 11 10 3 5 6 6 1 12 12 6 9 9 22 21 19 15
7 5 5 3 4 4 3 2 4 2 5 4 3 11 7 9 6 9 14 15 12 6 12 15 11 11 8 10 9 19 17 6 6 5 3 3 9 6 2 1 3 11 17 16 14
3 2 1 4 5 2 2 5 3 3 4 9 5 6 6 7 5 12 18 18 14 10 10 14 15 2 6 5 13 11 14 9 1 0 3 5 4 6 4 2 7 13 16 16 13
2 1 2 7 4 2 2 1 2 2 6 8 9 7 8 17 8 14 17 12 13 11 3 5 8 3 3 3 1 6 13 8 5 5 7 6 6 10 7 14 11 15 18 16 14
2 2 1 6 1 1 2 3 3 4 4 4 6 6 5 10 14 12 9 5 16 9 6 3 4 3 5 14 15 8 8 7 4 9 4 4 4 1 2 11 19 17 16 16 14
2 2 3 3 2 1 4 4 1 2 3 2 1 5 6 9 13 14 15 8 9 13 13 5 2 5 12 1 5 17 20 20 11 6 6 9 9 4 2 3 12 15 16 16 15
2 1 2 1 3 3 2 4 3 4 1 4 3 3 6 6 5 15 9 6 7 14 13 9 5 5 2 5 3 9 12 16 14 2 13 10 6 3 2 6 11 15 16 15 15
2 2 1 2 1 5 5 3 4 4 4 4 4 2 6 8 12 3 10 5 5 10 5 6 8 15 17 6 8 11 14 17 18 13 12 24 18 7 6 8 12 15 17 17 16
1 2 1 4 5 5 3 3 5 5 5 7 5 6 2 4 5 9 6 2 2 3 5 6 14 18 12 7 6 8 17 21 24 30 20 19 25 22 13 16 17 17 19 19 19
4 5 2 3 6 8 8 7 8 4 7 7 7 11 9 5 2 3 2 6 7 8 7 4 11 5 13 13 3 5 11 21 29 27 30 23 25 2 3 8 15 19 21 21 21
2 1 2 7 7 7 6 7 9 7 7 4 9 6 9 10 5 7 5 11 8 7 15 9 8 7 18 11 5 9 29 21 20 23 24 28 26 8 8 14 19 21 24 25 24
Wind_Direction
81 46 5 355 359 0 7 359 237 158 161 160 185 179 181 149 112 194 193 38 139 152 146 124 129 134 102 84 38 289 103 140 170 168 298 358 335 50 18 77 59 25 32 70 114
63 50 18 7 20 15 5 346 180 155 145 161 183 183 186 161 141 215 354 246 247 155 145 143 129 123 76 80 22 85 134 154 191 71 309 352 31 357 122 95 64 74 24 25 70
52 35 18 17 11 31 14 353 150 141 143 161 178 184 184 177 175 91 349 209 154 168 131 136 121 87 62 51 56 344 156 152 180 301 28 9 69 27 38 61 38 349 344 21 43
60 37 25 26 22 32 20 359 141 142 147 167 169 172 144 200 160 117 340 204 165 160 132 149 129 108 104 106 86 111 91 150 156 2 73 29 70 75 50 48 359 28 40 51 49
65 39 25 29 34 43 36 360 2 154 173 148 148 153 149 182 78 332 308 179 163 157 141 151 142 121 134 124 102 112 116 64 113 107 83 90 65 83 60 49 72 71 61 53 46
62 45 20 29 32 46 32 2 357 225 174 157 139 158 193 140 323 346 142 145 165 160 144 152 124 111 106 141 83 92 109 30 5 135 127 101 61 188 47 49 83 74 59 52 44
61 48 23 14 35 46 39 18 5 359 152 155 142 130 350 91 328 50 123 130 159 154 151 104 61 351 124 118 123 130 113 175 71 327 124 111 115 63 346 356 89 80 70 54 47
56 41 24 4 33 31 31 13 3 3 121 149 129 159 103 332 343 88 115 108 103 111 115 82 78 96 86 122 77 69 53 193 154 216 137 202 177 135 16 205 102 89 80 67 55
37 37 26 11 1 6 42 4 315 359 136 146 169 341 121 321 105 72 99 146 112 104 104 85 96 87 135 134 116 120 156 209 206 227 112 178 228 147 133 191 127 99 92 84 76
33 32 30 12 4 359 12 337 28 80 109 97 103 224 196 141 108 93 44 129 115 128 137 110 113 157 164 186 199 183 186 201 204 192 207 197 197 170 163 189 149 146 126 104 85
23 30 26 25 21 6 354 3 76 108 71 16 137 78 126 90 76 73 151 114 129 158 167 153 202 198 189 208 334 180 191 186 199 195 219 225 226 202 182 190 174 163 161 134 107
20 34 31 32 22 356 3 52 39 338 106 5 73 51 105 221 115 137 204 155 165 160 147 160 223 203 201 201 194 191 202 193 173 126 205 201 233 191 194 208 203 177 189 163 149
39 33 39 14 5 43 28 40 323 331 129 152 162 177 154 171 138 171 189 146 170 165 185 199 128 185 180 199 205 210 220 193 234 193 7 139 247 212 213 213 201 197 198 186 168
37 38 23 347 38 342 57 334 317 320 123 173 193 190 148 148 179 171 205 161 165 189 183 220 161 171 189 214 209 234 212 192 149 171 220 202 267 216 197 203 208 199 198 189 173
28 23 41 38 83 51 321 325 317 308 168 139 147 81 130 180 125 196 154 130 170 161 191 173 182 180 202 210 200 211 173 195 208 227 269 192 249 204 190 214 212 206 200 191 182
29 25 49 54 52 357 304 317 15 171 217 150 45 173 155 156 153 134 175 57 110 141 220 172 67 200 213 194 202 145 114 112 115 241 251 224 211 230 192 212 215 201 198 185 182
35 45 48 13 87 314 277 318 121 219 102 177 176 169 178 155 147 187 187 181 170 178 197 187 186 210 196 176 171 191 194 195 209 205 245 248 209 246 200 216 220 196 191 183 179
51 58 37 33 327 292 46 66 176 181 187 116 173 157 184 157 190 181 189 202 226 219 178 195 208 184 174 210 184 200 208 207 230 215 221 146 230 243 18 53 254 185 182 172 171
43 31 51 17 337 286 100 203 183 209 161 148 114 161 166 178 182 184 208 213 211 205 204 202 212 181 187 157 183 186 215 242 249 50 270 224 247 236 173 172 163 163 172 175 170
76 52 7 346 355 254 113 233 251 322 326 159 180 201 182 181 175 195 187 213 220 210 252 216 210 201 149 163 175 230 168 189 221 243 242 234 254 251 219 208 187 184 185 175 172
80 146 18 346 298 25 211 244 272 295 318 217 174 177 224 183 194 199 208 209 211 189 190 201 262 133 159 206 192 174 193 217 248 231 255 293 234 280 289 191 192 193 188 178 171
108 141 16 308 119 55 192 194 199 314 309 299 244 161 196 206 195 204 211 220 199 192 196 191 214 185 207 39 295 230 216 209 219 205 251 270 255 154 184 199 193 186 181 176 175
111 107 66 232 201 215 284 275 268 192 335 355 288 192 184 201 216 223 210 217 186 193 196 170 208 201 217 228 196 226 209 220 227 326 230 229 242 25 237 205 187 180 179 175 173
131 150 35 81 118 164 169 230 254 222 195 173 278 295 191 193 213 243 234 223 208 214 221 177 220 221 222 232 172 209 212 217 210 223 222 235 253 220 219 199 181 184 180 177 175
36 200 341 175 215 200 183 166 195 227 217 194 197 245 273 233 206 215 226 200 218 217 243 206 230 232 249 266 202 226 206 204 212 227 225 247 236 243 212 208 198 183 179 179 183
157 164 164 138 137 174 198 208 217 228 164 229 234 200 190 214 293 129 291 209 208 179 181 237 249 215 244 216 207 241 230 215 222 224 240 245 255 350 333 162 178 186 185 190 189
134 83 239 158 167 174 213 205 211 192 228 226 218 243 220 237 192 206 255 285 273 276 194 201 223 211 247 221 184 262 229 220 230 227 233 233 244 176 202 208 200 188 191 195 191